This demonstration page uses our WeatherBlox Daily Observations layout. Learn more.

Left ArrowRight Arrow

Hourly Observations for May 6, 2020

Temp ( °F °C ) Dew Point ( °F °C ) Humidity (%) Winds ( mph kmh ) Pressure ( in mb ) Visibility ( mi km ) Precip ( " mm )
12:53 am 00:53 Clear 67 19.4 38 3.3 35 35 ESE 12 19 30.05 1018 10 16 0.00 0.00
1:53 am 01:53 Clear 65 18.3 37 2.8 36 36 E 9 15 30.05 1018 10 16 0.00 0.00
2:53 am 02:53 Clear 63 17.2 37 2.8 38 38 ESE 8 13 30.06 1018 10 16 0.00 0.00
3:53 am 03:53 Clear 61 16.1 38 3.3 43 43 ESE 8 13 30.06 1018 10 16 0.00 0.00
4:53 am 04:53 Clear 58 14.4 38 3.3 48 48 ESE 8 13 30.07 1018 10 16 0.00 0.00
5:53 am 05:53 Clear 60 15.6 38 3.3 44 44 ESE 13 20 30.06 1018 10 16 0.00 0.00
6:53 am 06:53 Clear 57 13.9 38 3.3 49 49 E 9 15 30.08 1019 10 16 0.00 0.00
7:53 am 07:53 Sunny 59 15 39 3.9 48 48 ESE 10 17 30.10 1019 10 16 0.00 0.00
8:53 am 08:53 Sunny 64 17.8 41 5 43 43 SE 14 22 30.11 1020 10 16 0.00 0.00
9:53 am 09:53 Sunny 69 20.6 41 5 36 36 SE 18 30 30.11 1020 10 16 0.00 0.00
10:53 am 10:53 Sunny 72 22.2 41 5 33 33 SE 14 22 30.11 1020 10 16 0.00 0.00
11:16 am 11:16 Mostly Sunny 75 23.9 42 5.6 31 31 ESE 13 20 30.07 1018 10 16 0.00 0.00
11:53 am 11:53 Sunny 76 24.4 42 5.6 30 30 ESE 15 24 30.09 1019 10 16 0.00 0.00
12:53 pm 12:53 Sunny 80 26.7 42 5.6 26 26 ESE 16 26 30.06 1018 10 16 0.00 0.00
1:53 pm 13:53 Sunny 84 28.9 42 5.6 23 23 ESE 13 20 30.03 1017 10 16 0.00 0.00
2:53 pm 14:53 Sunny 85 29.4 42 5.6 22 22 ESE 9 15 30.00 1016 10 16 0.00 0.00
3:53 pm 15:53 Sunny 87 30.6 41 5 20 20 SE 13 20 29.97 1015 10 16 0.00 0.00
4:53 pm 16:53 Sunny 88 31.1 40 4.4 18 18 S 13 20 29.93 1014 10 16 0.00 0.00
5:53 pm 17:53 Sunny 89 31.7 40 4.4 18 18 E 13 20 29.91 1013 10 16 0.00 0.00
6:53 pm 18:53 Sunny 88 31.1 40 4.4 18 18 ESE 8 13 29.90 1013 10 16 0.00 0.00
7:53 pm 19:53 Sunny 86 30 40 4.4 20 20 SE 10 17 29.89 1012 10 16 0.00 0.00
8:53 pm 20:53 Clear 82 27.8 39 3.9 22 22 ESE 9 15 29.89 1012 10 16 0.00 0.00
9:53 pm 21:53 Clear 78 25.6 41 5 27 27 E 9 15 29.91 1013 10 16 0.00 0.00
10:53 pm 22:53 Clear 77 25 45 7.2 32 32 SE 14 22 29.93 1013 10 16 0.00 0.00
11:53 pm 23:53 Clear 75 23.9 51 10.6 43 43 SSE 13 20 29.93 1014 10 16 0.00 0.00

Powered by AerisWeather